KBQK

Details ICAO KBQK (BQK)
Name BRUNSWICK GOLDEN ISLES
Region United States
Timezone America/New_York (UTC-4.0)
Plans Departing 17
Arriving 29
Stats Elevation 26 ft / 8 m (AMSL)
Location 31.258808° -81.466494°
Runways 1
Magnetic Variation 6.758° W
Sunrise 2018-05-20 10:28:29 UTC / 2018-05-20 06:28:29 Local
Sunset 2018-05-21 00:19:10 UTC / 2018-05-20 20:19:10 Local
Advertisement - Login to hide

Runways

ID Width Length Bearing (true) Bearing (mag) Surface Threshold Offset Overrun Length
07 150 ft / 46 m 7,994 ft / 2,437 m 65.24° 72.00° Asphalt 0 ft / 0 m 200 ft / 61 m
25 150 ft / 46 m 7,994 ft / 2,437 m 245.25° 252.01° Asphalt 0 ft / 0 m 900 ft / 274 m

Approach Navaids

Runway Type Ident Frequency Range Bearing (true) Bearing (mag) Slope Elevation
07 Localiser IBQK 108.50 MHz 18 nm / 33 km 64.93° 71.69° - 26 ft / 8 m (AMSL)
07 Glidescope IBQK 108.50 MHz 10 nm / 19 km 65.25° 72.01° 3.00° 22 ft / 7 m (AMSL)

Map

Weather


0- 5 10 15 20 25 30 35+ Temperature / ° C

Clouds and Precipitation
Forecast for 2018-05-20 12:00 UTC. Updated an hour ago

Ground ~20,000 ft ~40,000 ft Winds

METAR

KBQK 201035Z AUTO 00000KT 10SM OVC100 21/20 A3013 RMK AO2

TAF

Not found

Frequencies

Recorded 124.17 MHz AWOS 3
Clearance 126.75 MHz CLNC DEL
Unicom 122.80 MHz CTAF/UNICOM
Warning: Do not use this data for real-world aviation or navigation. No guarantee of current accuracy is given.